Simultaneous Nadir Overpasses (SNOs) Predictions

Prediction of SNOs between METOP-B and TERRA Satellite Orbit:

Table of predicted SNOs for the next 14.0 days since TLE Epoch: 6/13/2015
Index Date (METOP-B) Time (METOP-B) Lat,Lon (METOP-B) SZA (METOP-B ) Date (TERRA) Time (TERRA) Lat,Lon (TERRA) SZA (TERRA ) Distance(km) Time Diff (sec)
1 06/15/2015 07:31:05 81.31, 114.89 60.99 06/15/2015 07:31:08 81.32, 114.84 60.99 0.93 3
2 06/15/2015 08:21:45 -81.31, -77.55 118.99 06/15/2015 08:20:35 -81.31, -77.64 119.04 1.65 70
3 06/18/2015 02:14:48 -81.30, 13.21 119.22 06/18/2015 02:15:57 -81.30, 13.35 119.18 2.30 69
4 06/18/2015 03:05:27 81.31,-178.70 60.87 06/18/2015 03:05:23 81.31,-178.89 60.85 3.19 4
5 06/20/2015 21:49:10 -81.30, 79.98 119.24 06/20/2015 21:50:12 -81.30, 79.87 119.22 1.75 62
6 06/
